Jacksonville, FL

7:54 PM EST on December 04, 2016 (GMT -0500)
Cecil

Weather History for KVQQ - March, 2012

Change the Weather History Date:

Tuesday, March 20, 2012

  Actual Average (KJAX) Record (KJAX)
Temperature  
Mean Temperature 66 °F 62 °F  
Max Temperature 80 °F 75 °F 89 °F (1945)
Min Temperature 53 °F 50 °F 34 °F (1923)
Degree Days  
Heating Degree Days 0 4  
Month to date heating degree days 116  
Since 1 July heating degree days 1249  
Cooling Degree Days 2 2  
Month to date cooling degree days 32  
Year to date cooling degree days 61  
Growing Degree Days 16 (Base 50)    
Moisture  
Dew Point 60 °F    
Average Humidity 85    
Maximum Humidity 100    
Minimum Humidity 48    
Precipitation  
Precipitation 0.00 in 0.12 in 3.04 in (1924)
Month to date precipitation 2.65  
Year to date precipitation 9.14  
Snow  
Snow 0.00 in 0.00 in 0.00 in (2002)
Month to date snowfall 0.0  
Since 1 July snowfall T  
Snow Depth -    
Sea Level Pressure  
Sea Level Pressure 30.13 in    
Wind  
Wind Speed 2 mph (East)    
Max Wind Speed 13 mph    
Max Gust Speed -    
Visibility 8 miles    
Events Fog    
T = Trace of Precipitation, MM = Missing Value Source: NWS Daily Summary

Daily Weather History Graph

Daily Weather History Graph

Search for Another Location

Airport or City:

Trip Planner

Search our weather history database for the weather conditions in past years. The results will help you decide how hot, cold, wet, or windy it might be!

Date:

Astronomy

Mar. 20, 2012 Rise Set
Actual Time 7:30 AM EDT 7:39 PM EDT
Civil Twilight 7:06 AM EDT 8:03 PM EDT
Nautical Twilight 6:38 AM EDT 8:31 PM EDT
Astronomical Twilight 6:10 AM EDT 8:59 PM EDT
Moon 6:06 AM EDT (3/20) 6:09 PM EDT (3/20)
Length of Visible Light 12h 56m
Length of Day
12h 08m
Waning Crescent, 4% of the Moon is Illuminated
Mar 20
Waning Crescent
Mar 22
New
Mar 30
First Quarter
Apr 6
Full
Apr 13
Last Quarter

Hourly Weather History & Observations

Time (EDT) Temp. Heat Index Dew Point Humidity Pressure Visibility Wind Dir Wind Speed Gust Speed Precip Events Conditions
12:15 AM 59.0 °F - 59.0 °F 100% 30.15 in 7.0 mi Calm Calm - N/A   Clear
12:35 AM 57.2 °F - 57.2 °F 100% 30.14 in 7.0 mi Calm Calm - N/A   Clear
1:55 AM 55.4 °F - 55.4 °F 100% 30.13 in 9.0 mi Calm Calm - N/A   Clear
4:55 AM 55.4 °F - 55.4 °F 100% 30.11 in 1.0 mi Calm Calm - N/A   Overcast
5:15 AM 55.4 °F - 55.4 °F 100% 30.11 in 10.0 mi Calm Calm - N/A   Overcast
5:55 AM 53.6 °F - 53.6 °F 100% 30.12 in 6.0 mi Calm Calm - N/A   Mostly Cloudy
6:15 AM 53.6 °F - 53.6 °F 100% 30.13 in 5.0 mi Calm Calm - N/A   Overcast
6:50 AM 53.6 °F - 53.6 °F 100% 30.14 in 7.0 mi Calm Calm - N/A   Mostly Cloudy
8:50 AM 57.2 °F - 57.2 °F 100% 30.16 in 0.5 mi Calm Calm - N/A Fog Fog
9:25 AM 62.6 °F - 62.6 °F 100% 30.16 in 3.0 mi Calm Calm - N/A   Clear
10:50 AM 73.4 °F - 64.4 °F 73% 30.18 in 10.0 mi East 9.2 mph - N/A   Clear
11:50 AM 75.2 °F - 62.6 °F 65% 30.19 in 10.0 mi East 10.4 mph - N/A   Scattered Clouds
1:50 PM 80.6 °F 81.8 °F 62.6 °F 54% 30.15 in 10.0 mi ENE 6.9 mph - N/A   Scattered Clouds
3:50 PM 80.6 °F 81.1 °F 59.0 °F 48% 30.11 in 10.0 mi East 8.1 mph - N/A   Scattered Clouds
4:50 PM 78.8 °F - 59.0 °F 51% 30.11 in 10.0 mi East 6.9 mph - N/A   Scattered Clouds
5:50 PM 77.0 °F - 59.0 °F 54% 30.09 in 10.0 mi East 12.7 mph - N/A   Scattered Clouds
6:50 PM 75.2 °F - 60.8 °F 61% 30.09 in 10.0 mi East 11.5 mph - N/A   Partly Cloudy
7:50 PM 71.6 °F - 62.6 °F 73% 30.10 in 10.0 mi East 12.7 mph - N/A   Clear
8:55 PM 69.8 °F - 62.6 °F 78% 30.12 in 10.0 mi Calm Calm - N/A   Clear
9:15 PM 69.8 °F - 62.6 °F 78% 30.12 in 10.0 mi Calm Calm - N/A   Clear
9:35 PM 68.0 °F - 64.4 °F 88% 30.13 in 10.0 mi Calm Calm - N/A   Clear
9:55 PM 68.0 °F - 64.4 °F 88% 30.14 in 10.0 mi Calm Calm - N/A   Clear
10:15 PM 68.0 °F - 64.4 °F 88% 30.14 in 10.0 mi Calm Calm - N/A   Clear
10:55 PM 66.2 °F - 64.4 °F 94% 30.15 in 10.0 mi Calm Calm - N/A   Clear
11:15 PM 66.2 °F - 64.4 °F 94% 30.15 in 10.0 mi Calm Calm - N/A   Clear
11:35 PM 64.4 °F - 64.4 °F 100% 30.16 in 10.0 mi Calm Calm - N/A   Clear
11:55 PM 62.6 °F - 62.6 °F 100% 30.16 in 10.0 mi Calm Calm - N/A   Clear